| time (UTC) | temp C | wind direction | speed KPH | gust KPH | rain 1hr cm | rain 24hr cm | rain mn cm | humidity % | barometer mb |
| 20260508121552 | 17 | 26 | 0.0 | 12.9 | 0.00 | 0.00 | 0.00 | 53 | 1012.6 |
| 20260508120042 | 18 | 0 | 0.0 | 16.1 | 0.00 | 0.00 | 0.00 | 52 | 1012.4 |
| 20260508114548 | 18 | 0 | 0.0 | 14.5 | 0.00 | 0.00 | 0.00 | 54 | 1012.4 |
| 20260508113054 | 17 | 0 | 1.6 | 16.1 | 0.00 | 0.00 | 0.00 | 55 | 1012.5 |
| 20260508111552 | 17 | 55 | 1.6 | 11.3 | 0.00 | 0.00 | 0.00 | 57 | 1012.6 |
| 20260508110048 | 17 | 86 | 1.6 | 14.5 | 0.00 | 0.00 | 0.00 | 58 | 1012.8 |
| 20260508104544 | 16 | 360 | 1.6 | 14.5 | 0.00 | 0.00 | 0.00 | 56 | 1012.8 |
| 20260508103045 | 16 | 61 | 0.0 | 17.7 | 0.00 | 0.00 | 0.00 | 61 | 1012.9 |
| 20260508101542 | 16 | 0 | 0.0 | 8.0 | 0.00 | 0.00 | 0.00 | 61 | 1013.0 |
| 20260508100059 | 16 | 0 | 1.6 | 9.7 | 0.00 | 0.00 | 0.00 | 60 | 1013.2 |
| 20260508094601 | 15 | 77 | 0.0 | 16.1 | 0.00 | 0.00 | 0.00 | 64 | 1013.1 |
| 20260508093048 | 15 | 0 | 1.6 | 14.5 | 0.00 | 0.00 | 0.00 | 67 | 1013.1 |
| 20260508091547 | 13 | 119 | 1.6 | 11.3 | 0.00 | 0.00 | 0.00 | 68 | 1013.1 |
| 20260508090107 | 13 | 67 | 0.0 | 12.9 | 0.00 | 0.00 | 0.00 | 70 | 1013.2 |
| 20260508084548 | 13 | 0 | 3.2 | 11.3 | 0.00 | 0.00 | 0.00 | 67 | 1013.1 |
| 20260508083040 | 12 | 74 | 3.2 | 14.5 | 0.00 | 0.00 | 0.00 | 71 | 1013.0 |
| 20260508081602 | 12 | 56 | 1.6 | 11.3 | 0.00 | 0.00 | 0.00 | 72 | 1013.0 |
| 20260508080043 | 11 | 29 | 1.6 | 9.7 | 0.00 | 0.00 | 0.00 | 75 | 1013.1 |
| 20260508074546 | 11 | 0 | 1.6 | 8.0 | 0.00 | 0.00 | 0.00 | 75 | 1013.1 |
| 20260508073103 | 10 | 0 | 0.0 | 0.0 | 0.00 | 0.00 | 0.00 | 78 | 1013.2 |
| 20260508071548 | 9 | 0 | 0.0 | 6.4 | 0.00 | 0.00 | 0.00 | 79 | 1013.0 |
| 20260508070049 | 9 | 0 | 0.0 | 1.6 | 0.00 | 0.00 | 0.00 | 82 | 1012.9 |
| 20260508064557 | 8 | 0 | 0.0 | 4.8 | 0.00 | 0.00 | 0.00 | 80 | 1013.0 |
| 20260508063055 | 8 | 0 | 0.0 | 0.0 | 0.00 | 0.00 | 0.00 | 80 | 1012.9 |
| 20260508061550 | 8 | 0 | 0.0 | 0.0 | 0.00 | 0.00 | 0.00 | 82 | 1012.8 |
| 20260508054550 | 6 | 0 | 0.0 | 0.0 | 0.00 | 0.00 | 0.00 | 86 | 1012.6 |
| 20260508053041 | 6 | 0 | 0.0 | 0.0 | 0.00 | 0.00 | 0.00 | 86 | 1012.6 |
| 20260508051604 | 5 | 0 | 0.0 | 0.0 | 0.00 | 0.00 | 0.00 | 86 | 1012.5 |
| 20260508050045 | 5 | 0 | 0.0 | 3.2 | 0.00 | 0.00 | 0.00 | 85 | 1012.4 |
| 20260508044547 | 3 | 0 | 0.0 | 0.0 | 0.00 | 0.00 | 0.00 | 84 | 1012.2 |
| 20260508043046 | 2 | 0 | 0.0 | 0.0 | 0.00 | 0.00 | 0.00 | 81 | 1012.1 |
| 20260508041552 | 3 | 0 | 0.0 | 0.0 | 0.00 | 0.00 | 0.00 | 81 | 1012.0 |
| 20260508040052 | 3 | 0 | 0.0 | 0.0 | 0.00 | 0.00 | 0.00 | 80 | 1012.0 |
| 20260508034550 | 3 | 0 | 0.0 | 0.0 | 0.00 | 0.00 | 0.00 | 80 | 1012.0 |
| 20260508033055 | 3 | 0 | 0.0 | 0.0 | 0.00 | 0.00 | 0.00 | 80 | 1011.9 |
| 20260508031555 | 3 | 0 | 0.0 | 0.0 | 0.00 | 0.00 | 0.00 | 80 | 1011.8 |
| 20260508030058 | 3 | 0 | 0.0 | 0.0 | 0.00 | 0.00 | 0.00 | 80 | 1011.8 |
| 20260508024613 | 4 | 0 | 0.0 | 0.0 | 0.00 | 0.00 | 0.00 | 81 | 1011.7 |
| 20260508023045 | 4 | 0 | 0.0 | 0.0 | 0.00 | 0.00 | 0.00 | 81 | 1011.9 |
| 20260508021551 | 4 | 0 | 0.0 | 0.0 | 0.00 | 0.00 | 0.00 | 81 | 1011.9 |
| 20260508020050 | 4 | 0 | 0.0 | 0.0 | 0.00 | 0.00 | 0.00 | 81 | 1011.9 |
| 20260508014553 | 4 | 0 | 0.0 | 0.0 | 0.00 | 0.00 | 0.00 | 81 | 1012.1 |
| 20260508013042 | 4 | 0 | 0.0 | 0.0 | 0.00 | 0.00 | 0.00 | 80 | 1012.1 |
| 20260508011547 | 4 | 0 | 0.0 | 0.0 | 0.00 | 0.00 | 0.00 | 79 | 1012.0 |
| 20260508010054 | 5 | 0 | 0.0 | 0.0 | 0.00 | 0.00 | 0.00 | 78 | 1012.0 |
| 20260508004552 | 5 | 0 | 0.0 | 0.0 | 0.00 | 0.00 | 0.00 | 78 | 1012.2 |
| 20260508003049 | 5 | 0 | 0.0 | 0.0 | 0.00 | 0.00 | 0.00 | 78 | 1012.3 |
| 20260508001550 | 5 | 0 | 0.0 | 0.0 | 0.00 | 0.00 | 0.00 | 78 | 1012.3 |
| 20260508000048 | 5 | 0 | 0.0 | 0.0 | 0.00 | 0.00 | 0.00 | 77 | 1012.5 |
| 20260507234556 | 6 | 0 | 0.0 | 0.0 | 0.00 | 0.00 | 0.00 | 77 | 1012.7 |
| 20260507233043 | 6 | 0 | 0.0 | 0.0 | 0.00 | 0.00 | 0.00 | 77 | 1012.7 |
| 20260507231555 | 6 | 0 | 0.0 | 0.0 | 0.00 | 0.00 | 0.00 | 76 | 1012.8 |
| 20260507230108 | 7 | 0 | 0.0 | 0.0 | 0.00 | 0.00 | 0.00 | 75 | 1012.9 |
| 20260507224554 | 7 | 0 | 0.0 | 0.0 | 0.00 | 0.00 | 0.00 | 75 | 1012.8 |
| 20260507223053 | 7 | 0 | 0.0 | 0.0 | 0.00 | 0.00 | 0.00 | 74 | 1012.9 |
| 20260507221551 | 8 | 0 | 0.0 | 0.0 | 0.00 | 0.00 | 0.00 | 74 | 1012.9 |
| 20260507220053 | 8 | 0 | 0.0 | 0.0 | 0.00 | 0.00 | 0.00 | 73 | 1012.9 |
| 20260507214552 | 9 | 0 | 0.0 | 0.0 | 0.00 | 0.00 | 0.00 | 75 | 1012.9 |
| 20260507213052 | 9 | 0 | 0.0 | 0.0 | 0.00 | 0.00 | 0.00 | 75 | 1012.7 |
| 20260507211547 | 9 | 0 | 0.0 | 0.0 | 0.00 | 0.00 | 0.00 | 75 | 1012.8 |
| 20260507210106 | 9 | 0 | 0.0 | 0.0 | 0.00 | 0.00 | 0.00 | 74 | 1013.1 |
| 20260507204546 | 9 | 0 | 0.0 | 0.0 | 0.00 | 0.00 | 0.00 | 74 | 1013.0 |
| 20260507203114 | 9 | 0 | 0.0 | 0.0 | 0.00 | 0.00 | 0.00 | 74 | 1013.0 |
| 20260507201545 | 9 | 0 | 0.0 | 0.0 | 0.00 | 0.00 | 0.00 | 74 | 1012.9 |
| 20260507200047 | 10 | 0 | 0.0 | 0.0 | 0.00 | 0.00 | 0.00 | 73 | 1012.8 |
| 20260507194555 | 10 | 0 | 0.0 | 0.0 | 0.00 | 0.00 | 0.00 | 72 | 1012.6 |
| 20260507193044 | 10 | 0 | 0.0 | 0.0 | 0.00 | 0.00 | 0.00 | 71 | 1012.4 |
| 20260507191550 | 10 | 0 | 0.0 | 0.0 | 0.00 | 0.00 | 0.00 | 70 | 1012.4 |
| 20260507190055 | 10 | 0 | 0.0 | 4.8 | 0.00 | 0.00 | 0.00 | 69 | 1012.1 |
| 20260507184551 | 11 | 0 | 0.0 | 6.4 | 0.00 | 0.00 | 0.00 | 68 | 1011.9 |
| 20260507183051 | 11 | 16 | 0.0 | 0.0 | 0.00 | 0.00 | 0.00 | 68 | 1011.8 |
| 20260507181551 | 11 | 0 | 0.0 | 8.0 | 0.00 | 0.00 | 0.00 | 68 | 1011.6 |
| 20260507180050 | 11 | 0 | 0.0 | 16.1 | 0.00 | 0.00 | 0.00 | 68 | 1011.4 |
| 20260507174548 | 12 | 0 | 0.0 | 12.9 | 0.00 | 0.00 | 0.00 | 68 | 1011.3 |
| 20260507173124 | 12 | 0 | 1.6 | 14.5 | 0.00 | 0.00 | 0.00 | 65 | 1011.1 |
| 20260507171549 | 12 | 0 | 0.0 | 0.0 | 0.00 | 0.00 | 0.00 | 65 | 1011.2 |
| 20260507170044 | 13 | 0 | 0.0 | 8.0 | 0.00 | 0.00 | 0.00 | 63 | 1011.2 |
| 20260507164542 | 13 | 360 | 0.0 | 12.9 | 0.00 | 0.00 | 0.00 | 63 | 1011.0 |
| 20260507163046 | 14 | 0 | 0.0 | 9.7 | 0.00 | 0.00 | 0.00 | 60 | 1011.0 |
| 20260507161556 | 14 | 0 | 1.6 | 14.5 | 0.00 | 0.00 | 0.00 | 62 | 1010.9 |
| 20260507160053 | 14 | 0 | 1.6 | 20.9 | 0.00 | 0.00 | 0.00 | 60 | 1010.8 |
| 20260507154550 | 13 | 315 | 4.8 | 20.9 | 0.00 | 0.00 | 0.00 | 61 | 1010.9 |
| 20260507153048 | 14 | 296 | 0.0 | 17.7 | 0.00 | 0.00 | 0.00 | 61 | 1010.9 |
| 20260507151546 | 14 | 0 | 3.2 | 16.1 | 0.00 | 0.00 | 0.00 | 61 | 1010.7 |
| 20260507150045 | 14 | 327 | 1.6 | 19.3 | 0.00 | 0.00 | 0.00 | 60 | 1010.8 |
| 20260507144600 | 15 | 287 | 12.9 | 20.9 | 0.00 | 0.00 | 0.00 | 57 | 1010.6 |
| 20260507143100 | 15 | 315 | 4.8 | 19.3 | 0.00 | 0.00 | 0.00 | 60 | 1010.7 |
| 20260507141558 | 14 | 302 | 1.6 | 12.9 | 0.00 | 0.00 | 0.00 | 61 | 1010.8 |
| 20260507140050 | 14 | 324 | 4.8 | 17.7 | 0.00 | 0.00 | 0.00 | 62 | 1010.8 |
| 20260507134552 | 13 | 302 | 4.8 | 16.1 | 0.00 | 0.03 | 0.00 | 61 | 1010.9 |
| 20260507133111 | 14 | 282 | 3.2 | 19.3 | 0.00 | 0.03 | 0.00 | 61 | 1010.9 |
| 20260507131548 | 13 | 11 | 6.4 | 19.3 | 0.00 | 0.03 | 0.00 | 63 | 1010.9 |
| 20260507130057 | 13 | 360 | 3.2 | 20.9 | 0.00 | 0.03 | 0.00 | 66 | 1010.9 |
| 20260507124550 | 13 | 315 | 6.4 | 19.3 | 0.00 | 0.03 | 0.00 | 67 | 1010.9 |
| 20260507123047 | 11 | 311 | 8.0 | 22.5 | 0.00 | 0.03 | 0.00 | 68 | 1010.9 |